Change the Weather History Date:

Thursday, July 25, 2013

  Actual Average Record
Temperature  
Mean Temperature 79 °F 81 °F  
Max Temperature 88 °F 93 °F 108 °F (2012)
Min Temperature 69 °F 70 °F 58 °F (1890)
Degree Days  
Heating Degree Days 0 0  
Month to date heating degree days 0 0  
Since 1 June heating degree days 3 6  
Since 1 July heating degree days 0 0  
Cooling Degree Days 14 16  
Month to date cooling degree days 403 395  
Year to date cooling degree days 943 860  
Since 1 June cooling degree days 805 724  
Growing Degree Days 28 (Base 50)    
Moisture  
Dew Point 68 °F    
Average Humidity 75    
Maximum Humidity 90    
Minimum Humidity 59    
Precipitation  
Precipitation 0.04 in 0.09 in 1.18 in (1944)
Month to date precipitation 3.67 2.75  
Year to date precipitation 19.52 19.81  
Snow  
Snow 0.00 in 0.00 in 0.00 in (2007)
Month to date snowfall 0.0 0.0  
Since 1 June snowfall 0.0 0.0  
Since 1 July snowfall 0.0 0.0  
Snow Depth 0.00 in    
Sea Level Pressure  
Sea Level Pressure 30.00 in    
Wind  
Wind Speed 8 mph (SSE)    
Max Wind Speed 20 mph    
Max Gust Speed 24 mph    
Visibility 10 miles    
Events Rain    
T = Trace of Precipitation, MM = Missing Value Source: NWS Daily Summary

Daily Weather History Graph

Daily Weather History Graph

Search for Another Location

Airport or City:

Trip Planner

Search our weather history database for the weather conditions in past years. The results will help you decide how hot, cold, wet, or windy it might be!

Date:

Astronomy

Jul. 25, 2013 Rise Set
Actual Time 6:27 AM CDT 8:44 PM CDT
Civil Twilight 5:58 AM CDT 9:13 PM CDT
Nautical Twilight 5:22 AM CDT 9:49 PM CDT
Astronomical Twilight 4:42 AM CDT 10:29 PM CDT
Moon 10:31 PM CDT (7/25) 9:53 AM CDT (7/25)
Length of Visible Light 15h 15m
Length of Day
14h 16m
Waning Gibbous, 88% of the Moon is Illuminated
Jul 25
Waning Gibbous
Jul 29
Last Quarter
Aug 6
New
Aug 14
First Quarter
Aug 20
Full

Hourly Weather History & Observations

Time (CDT) Temp. Heat Index Dew Point Humidity Pressure Visibility Wind Dir Wind Speed Gust Speed Precip Events Conditions
12:53 AM 73.0 °F - 64.0 °F 73% 30.03 in 10.0 mi NE 4.6 mph - N/A   Scattered Clouds
1:53 AM 73.0 °F - 64.0 °F 73% 30.02 in 10.0 mi East 3.5 mph - N/A   Mostly Cloudy
2:53 AM 73.0 °F - 64.0 °F 73% 30.02 in 10.0 mi Calm Calm - N/A   Mostly Cloudy
3:53 AM 71.1 °F - 64.0 °F 78% 30.01 in 10.0 mi Calm Calm - N/A   Mostly Cloudy
4:53 AM 70.0 °F - 64.9 °F 84% 30.01 in 10.0 mi Calm Calm - N/A   Mostly Cloudy
5:53 AM 70.0 °F - 64.9 °F 84% 30.01 in 10.0 mi SSE 5.8 mph - N/A   Mostly Cloudy
6:53 AM 70.0 °F - 66.9 °F 90% 30.02 in 10.0 mi SSW 6.9 mph - N/A   Mostly Cloudy
7:53 AM 72.0 °F - 68.0 °F 87% 30.04 in 10.0 mi SW 4.6 mph - N/A   Mostly Cloudy
8:53 AM 75.9 °F - 70.0 °F 82% 30.04 in 10.0 mi SSW 5.8 mph - N/A   Mostly Cloudy
9:53 AM 79.0 °F - 71.1 °F 77% 30.03 in 10.0 mi SSE 4.6 mph - N/A   Mostly Cloudy
10:53 AM 82.9 °F 87.0 °F 70.0 °F 65% 30.02 in 10.0 mi South 8.1 mph - N/A   Mostly Cloudy
11:53 AM 84.0 °F 87.8 °F 69.1 °F 61% 30.02 in 10.0 mi SSE 13.8 mph - N/A   Mostly Cloudy
12:53 PM 84.0 °F 87.8 °F 69.1 °F 61% 30.01 in 10.0 mi SE 17.3 mph - N/A   Mostly Cloudy
1:53 PM 87.1 °F 92.8 °F 71.1 °F 59% 30.00 in 10.0 mi South 16.1 mph - N/A   Mostly Cloudy
2:53 PM 84.0 °F 87.0 °F 68.0 °F 58% 30.01 in 10.0 mi SSW 11.5 mph - N/A   Mostly Cloudy
3:53 PM 82.9 °F 86.5 °F 69.1 °F 63% 30.00 in 10.0 mi South 12.7 mph - N/A   Mostly Cloudy
4:53 PM 82.9 °F 85.8 °F 68.0 °F 60% 29.98 in 10.0 mi SSE 11.5 mph - N/A   Mostly Cloudy
5:53 PM 82.9 °F 86.5 °F 69.1 °F 63% 29.98 in 10.0 mi SSE 8.1 mph - N/A   Overcast
6:53 PM 82.0 °F 85.5 °F 69.1 °F 65% 29.97 in 10.0 mi SE 12.7 mph - N/A   Overcast
7:53 PM 80.1 °F 83.2 °F 70.0 °F 71% 29.99 in 10.0 mi SSE 9.2 mph - N/A   Overcast
8:53 PM 78.1 °F - 70.0 °F 76% 29.99 in 10.0 mi SSE 9.2 mph - N/A   Mostly Cloudy
9:53 PM 77.0 °F - 70.0 °F 79% 29.97 in 10.0 mi SSE 11.5 mph - N/A   Mostly Cloudy
10:53 PM 77.0 °F - 69.1 °F 76% 29.97 in 10.0 mi SSE 10.4 mph - N/A   Mostly Cloudy
11:53 PM 75.9 °F - 68.0 °F 76% 29.97 in 10.0 mi South 6.9 mph - 0.00 in Rain Light Rain